Regional Weather Roundup
Issued by NWS

Home | Current Version | Previous Version | Graphics & Text | Print | Product List | Glossary On
Versions: 1 2 3 4 5 6 7 8 9 10 11 12 13 14 15 16 17 18 19 20 21 22 23 24 25 26 27 28 29 30 31 32 33 34 35 36 37 38 39 40 41 42 43 44 45 46 47 48 49 50
000
ASUS43 KLMK 291410
RWRKY
KENTUCKY REGIONAL WEATHER ROUNDUP
NATIONAL WEATHER SERVICE LOUISVILLE KY
1000 AM EDT FRI MAY 29 2015

NOTE "FAIR" INDICATES FEW OR NO CLOUDS BELOW 12,000 FEET
WITH NO SIGNIFICANT WEATHER AND/OR OBSTRUCTIONS TO VISIBILITY.

KYZ001>023-026-027-061>063-070>075-291500-
WESTERN AND SOUTH CENTRAL KENTUCKY

CITY           SKY/WX    TMP DP  RH WIND       PRES   REMARKS
PADUCAH        PTSUNNY   74  68  81 S9        30.10S
HENDERSON      CLOUDY    72  64  78 S13       30.13R
OWENSBORO      CLOUDY    72  68  87 S15       30.16R
HOPKINSVILLE   PTSUNNY   73  67  80 S6        30.15R
BOWLING GREEN  PTSUNNY   74  65  73 S15G22    30.17R
GLASGOW        PTSUNNY   73  64  72 S13G18    30.18R
$$

KYZ024-025-028>034-038-045-046-053-291500-
NORTH CENTRAL KENTUCKY

CITY           SKY/WX    TMP DP  RH WIND       PRES   REMARKS
LOUISVILLE/SDF PTSUNNY   74  66  76 S13       30.16R
LOUISVILLE/LOU MOSUNNY   75  67  76 S9        30.16R
FORT KNOX      PTSUNNY   72  67  82 S12       30.15S
$$

KYZ035>037-039>044-047>052-055>060-089>105-291500-
NORTHEAST KENTUCKY

CITY           SKY/WX    TMP DP  RH WIND       PRES   REMARKS
LEXINGTON      PTSUNNY   73  66  78 S14       30.19S
COVINGTON      PTSUNNY   72  66  81 S9        30.16R
FRANKFORT      PTSUNNY   72  66  81 S8        30.17R
$$

KYZ054-064>069-076>088-106>120-291500-
SOUTHEAST KENTUCKY

CITY           SKY/WX    TMP DP  RH WIND       PRES   REMARKS
JACKSON        CLOUDY    73  66  78 CALM      30.23S
LONDON         MOSUNNY   75  64  68 MISG      30.23R
SOMERSET       CLOUDY    70  68  94 S6        30.22F
MIDDLESBORO    CLOUDY    71  65  79 CALM      30.25S
MONTICELLO     SUNNY     76  68  76 SE8       30.23F
$$



USA.gov is the U.S. government's official web portal to all federal, state and local government web resources and services.